Weather in Solnechnaya Polyana

Russia / Samara Oblast     53°25′57″N   49°55′29″E
temp.,
°C
wind,
m/s
gust,
m/s
humid.,
%
clouds,
%
prec.,
mm/h
press.,
hPa
HPBL,
m
3 march, wed
wed301:00−2w2397100 0.3 100290
04:00−4w239699 0.3 1002100
07:00−6w3497100 0.0 100282
10:00−4wnw599482 0.1 1003439
13:00−2wnw698893 0.1 1004859
16:00−4wnw698896 0.2 1005891
19:00−6wnw5129392 0.1 1006435
22:00−6wnw5119292 0.2 1008702
4 march, thu
thu401:00−10w499388 0.1 1008196
04:00−11wsw359572 0.1 100889
07:00−12sw349460 0.0 100791
10:00−7sw5129270 0.1 1006467
13:00−3sw81390100 0.3 1002806
16:00−1sw91594100 1.8 10001089
19:00+1wsw81690100 0.6 9991173
22:000wsw61487100 0.6 1002725
5 march, fri
fri501:00−1wsw5119599 0.4 1002557
04:00−1sw4997100 1.6 1002536
07:00−2sw51196100 1.0 1001503
10:000sw51197100 2.6 1000691
13:000sw37100100 1.9 999375
16:00−2n6995100 2.8 1002542
19:00−7nnw489490 0.1 1006226
22:00−12nw239057 0.1 101124
6 march, sat
sat601:00−15nw11820 0.0 101320
04:00−15ssw117519 0.0 101420
07:00−14sse227997 0.0 101420
10:00−10sse238899 0.0 1013142
13:00−5ssw2385100 0.0 1011408
16:00−4w3490100 0.1 1010532
19:00−8nw4894100 0.1 1010215
22:00−11wnw5109470 0.1 1011253
7 march, sun
sun701:00−14wnw499493 0.1 1011200
04:00−18wnw489663 0.1 1012154
07:00−20w349873 0.0 101372
10:00−14w369137 0.0 1015291
13:00−10wsw468211 0.0 1014691
16:00−9ssw58847 0.0 1012574
19:00−11ssw61391100 0.0 1009549
22:00−8ssw71590100 0.2 1006785